weather.gov     
National Weather Service

Terminal Aerodrome Forecast
NWS Homepage
This page is being discontinued on March 12, 2014.
The same data is available at this site. Please update your bookmarks.
Thank you, and we apologize for the inconvenience.
Please send an email to SR-SRH.Webmaster@noaa.gov with any concerns.


Current Version
Previous Version:    01  02  03  04  05  06  07  08  09  10  11  12  13  14  15  16  17  18  19  20  21  22  23  24  25  26  27  28  29  30  
   31  32  33  34  35  36  37  38  39  40  41  42  43  
[Printable]
391
FTUS43 KMKX 291135
TAFUES
TAF
KUES 291135Z 2912/3012 31008KT P6SM FEW080 SCT150
     FM291700 31008KT P6SM SCT030 SCT060
     FM292000 30008KT P6SM VCTS BKN060CB
     FM300200 28005KT P6SM VCSH SCT060 SCT100
     FM300500 27003KT P6SM SCT080=


391
FTUS43 KMKX 291135
TAFUES
TAF
KUES 291135Z 2912/3012 31008KT P6SM FEW080 SCT150
     FM291700 31008KT P6SM SCT030 SCT060
     FM292000 30008KT P6SM VCTS BKN060CB
     FM300200 28005KT P6SM VCSH SCT060 SCT100
     FM300500 27003KT P6SM SCT080=




U.S. Dept. of Commerce
NOAA National Weather Service
1325 East West Highway
Silver Spring, MD 20910
E-mail: w-nws.webmaster@noaa.gov
Page last modified: May 16, 2007
NATIONAL WEATHER SERVICE: for Safety, for Work, for Fun - FOR LIFE